Alta, CA

5:00 PM PST on January 17, 2017 (GMT -0800)
Blue Canyon-Nyack

Weather History for KBLU - November, 2011

Change the Weather History Date:

Sunday, November 27, 2011

  Actual Average Record
Temperature  
Mean Temperature 54 °F -  
Max Temperature 57 °F 47 °F 66 °F (1955)
Min Temperature 50 °F 34 °F 22 °F (1948)
Degree Days  
Heating Degree Days 12    
Growing Degree Days 4 (Base 50)    
Moisture  
Dew Point 21 °F    
Average Humidity 28    
Maximum Humidity 38    
Minimum Humidity 22    
Precipitation  
Precipitation 0.00 in - - ()
Sea Level Pressure  
Sea Level Pressure 30.28 in    
Wind  
Wind Speed 6 mph (SSE)    
Max Wind Speed 12 mph    
Max Gust Speed -    
Visibility 10 miles    
Events      
Averages and records for this station are not official NWS values.
T = Trace of Precipitation, MM = Missing Value Source: NWS Daily Summary

Daily Weather History Graph

Daily Weather History Graph

Search for Another Location

Airport or City:

Trip Planner

Search our weather history database for the weather conditions in past years. The results will help you decide how hot, cold, wet, or windy it might be!

Date:

Astronomy

Nov. 27, 2011 Rise Set
Actual Time 6:59 AM PST 4:41 PM PST
Civil Twilight 6:29 AM PST 5:10 PM PST
Nautical Twilight 5:56 AM PST 5:43 PM PST
Astronomical Twilight 5:24 AM PST 6:15 PM PST
Moon 9:28 AM PST (11/27) 7:25 PM PST (11/27)
Length of Visible Light 10h 41m
Length of Day
9h 42m
Waxing Crescent, 9% of the Moon is Illuminated
Nov 27
Waxing Crescent
Dec 2
First Quarter
Dec 10
Full
Dec 17
Last Quarter
Dec 24
New

Hourly Weather History & Observations

Time (PST) Temp. Dew Point Humidity Pressure Visibility Wind Dir Wind Speed Gust Speed Precip Events Conditions
12:52 AM 55.0 °F 18.0 °F 23% 30.27 in 10.0 mi SE 3.5 mph - N/A   Clear
1:52 AM 55.0 °F 18.0 °F 23% 30.28 in 10.0 mi SE 5.8 mph - N/A   Clear
2:52 AM 54.0 °F 16.0 °F 22% 30.28 in 10.0 mi SE 5.8 mph - N/A   Clear
3:52 AM 54.0 °F 16.0 °F 22% 30.28 in 10.0 mi SSE 6.9 mph - N/A   Clear
4:52 AM 52.0 °F 19.0 °F 27% 30.29 in 10.0 mi SSE 6.9 mph - N/A   Clear
5:52 AM 52.0 °F 18.0 °F 26% 30.30 in 10.0 mi SE 5.8 mph - N/A   Clear
6:52 AM 51.1 °F 18.0 °F 27% 30.32 in 10.0 mi SE 4.6 mph - N/A   Clear
7:52 AM 52.0 °F 18.0 °F 26% 30.31 in 10.0 mi SE 5.8 mph - N/A   Clear
8:52 AM 55.0 °F 19.0 °F 24% 30.31 in 10.0 mi SE 5.8 mph - N/A   Clear
9:52 AM 57.0 °F 19.9 °F 24% 30.32 in 10.0 mi SE 4.6 mph - N/A   Clear
10:52 AM 55.9 °F 21.0 °F 26% 30.32 in 10.0 mi South 8.1 mph - N/A   Clear
11:52 AM 57.9 °F 19.9 °F 23% 30.28 in 10.0 mi South 11.5 mph - N/A   Clear
12:52 PM 57.9 °F 27.0 °F 31% 30.26 in 10.0 mi South 8.1 mph - N/A   Clear
1:52 PM 57.0 °F 26.1 °F 30% 30.26 in 10.0 mi South 8.1 mph - N/A   Clear
2:52 PM 55.9 °F 27.0 °F 33% 30.26 in 10.0 mi South 11.5 mph - N/A   Clear
3:52 PM 54.0 °F 26.1 °F 34% 30.27 in 10.0 mi South 11.5 mph - N/A   Clear
4:52 PM 51.1 °F 26.1 °F 38% 30.29 in 10.0 mi SSE 5.8 mph - N/A   Clear
5:52 PM 50.0 °F 25.0 °F 38% 30.30 in 10.0 mi SE 5.8 mph - N/A   Clear
6:52 PM 51.1 °F 21.0 °F 31% 30.29 in 10.0 mi SE 4.6 mph - N/A   Clear
7:52 PM 51.1 °F 18.0 °F 27% 30.27 in 10.0 mi SE 4.6 mph - N/A   Clear
8:52 PM 51.1 °F 19.9 °F 29% 30.26 in 10.0 mi SE 5.8 mph - N/A   Clear
9:52 PM 52.0 °F 19.9 °F 28% 30.25 in 10.0 mi SE 6.9 mph - N/A   Clear
10:52 PM 51.1 °F 19.9 °F 29% 30.26 in 10.0 mi SE 5.8 mph - N/A   Clear
11:52 PM 51.1 °F 21.9 °F 32% 30.26 in 10.0 mi SE 6.9 mph - N/A   Clear